Location: Newark
(43.4306°N, 0.3089°E)
Time: 16:15:37
(UTC+00:00)

S-56A Canister/Altair - Pass Details

Date: 24 August 2019
Orbit: 633 x 2499 km, 38.9° (Epoch: 17 September)

Event Time Altitude Azimuth Distance (km) Brightness Sun altitude
Rises 18:58:21 0° 212° (SSW) 3,765 11.3 -2.6°
Reaches altitude 10° 19:02:13 10° 193° (SSW) 2,513 10.1 -3.2°
Maximum altitude 19:05:47 17° 154° (SSE) 1,843 9.1 -3.9°
Drops below altitude 10° 19:08:52 10° 113° (ESE) 2,126 9.1 -4.4°
Enters shadow 19:10:14 - 102° (ESE) 2,477 9.5 -4.6°
Sets 19:11:45 0° 92° (E) 2,949 - -4.9°
